Visibility
15.0 15.0 15.0 15.0 15.0 15.0 15.0 15.0 15.0 15.0 15.0 15.0 15.0 15.0 15.0 15.0 15.0 15.0 15.0 15.0 15.0 15.0 15.0 15.0 15.0 15.0 15.0 15.0 15.0 15.0 15.0 15.0 15.0 15.0 15.0 15.0 15.0 15.0 15.0 15.0 15.0 15.0 15.0
15.0 15.0 15.0 15.0 15.0 15.0 15.0 15.0 15.0 15.0 15.0 15.0 15.0 15.0 15.0 15.0 15.0 15.0 15.0 15.0 15.0 15.0 15.0 15.0 15.0 15.0 15.0 15.0 15.0 15.0 15.0 15.0 15.0 15.0 15.0 15.0 15.0 15.0 15.0 15.0 15.0 15.0 15.0
15.0 15.0 15.0 15.0 15.0 15.0 15.0 15.0 15.0 15.0 15.0 15.0 15.0 15.0 15.0 15.0 15.0 15.0 15.0 15.0 15.0 15.0 15.0 15.0 15.0 15.0 15.0 15.0 15.0 15.0 15.0 15.0 15.0 15.0 15.0 15.0 15.0 15.0 15.0 15.0 15.0 15.0 15.0
15.0 15.0 15.0 15.0 15.0 15.0 15.0 15.0 15.0 15.0 15.0 15.0 15.0 15.0 15.0 15.0 15.0 15.0 15.0 15.0 15.0 15.0 15.0 15.0 15.0 15.0 15.0 15.0 15.0 15.0 15.0 15.0 15.0 15.0 15.0 15.0 15.0 15.0 15.0 15.0 15.0 15.0 15.0
15.0 15.0 15.0 15.0 15.0 15.0 15.0 15.0 15.0 15.0 15.0 15.0 15.0 15.0 15.0 15.0 15.0 15.0 15.0 15.0 15.0 15.0 15.0 15.0 15.0 15.0 15.0 15.0 15.0 15.0 15.0 15.0 15.0 15.0 15.0 15.0 15.0 15.0 15.0 15.0 15.0 15.0 15.0
15.0 15.0 15.0 15.0 15.0 15.0 15.0 15.0 15.0 15.0 15.0 15.0 15.0 15.0 15.0 15.0 15.0 15.0 15.0 15.0 15.0 15.0 15.0 15.0 15.0 15.0 15.0 15.0 15.0 15.0 15.0 15.0 15.0 15.0 15.0 15.0 15.0 15.0 15.0 15.0 15.0 15.0 15.0
15.0 15.0 15.0 15.0 15.0 15.0 15.0 15.0 15.0 15.0 15.0 15.0 15.0 15.0 15.0 15.0 15.0 15.0 15.0 15.0 15.0 15.0 15.0 15.0 15.0 15.0 15.0 15.0 15.0 15.0 15.0 15.0 15.0 15.0 15.0 15.0 15.0 15.0 15.0 15.0 15.0 15.0 15.0
15.0 15.0 15.0 15.0 15.0 15.0 15.0 15.0 15.0 15.0 15.0 15.0 15.0 15.0 15.0 15.0 15.0 15.0 15.0 15.0 15.0 15.0 15.0 15.0 15.0 15.0 15.0 15.0 15.0 15.0 15.0 15.0 15.0 15.0 15.0 15.0 15.0 15.0 15.0 15.0 15.0 15.0 15.0
15.0 15.0 15.0 15.0 15.0 15.0 15.0 15.0 15.0 15.0 15.0 15.0 15.0 15.0 15.0 15.0 15.0 15.0 15.0 15.0 15.0 15.0 15.0 15.0 15.0 15.0 15.0 15.0 15.0 15.0 15.0 15.0 15.0 15.0 15.0 15.0 15.0 15.0 15.0 15.0 15.0 15.0 14.6
15.0 15.0 15.0 15.0 15.0 15.0 15.0 15.0 15.0 15.0 15.0 15.0 15.0 15.0 15.0 15.0 15.0 15.0 15.0 15.0 15.0 15.0 15.0 15.0 15.0 15.0 15.0 15.0 15.0 15.0 15.0 15.0 15.0 15.0 15.0 9.9 1.4 15.0 14.0 15.0 15.0 15.0 13.5
14.6 15.0 15.0 15.0 15.0 15.0 15.0 15.0 15.0 15.0 15.0 15.0 15.0 15.0 15.0 15.0 15.0 15.0 15.0 15.0 15.0 15.0 15.0 15.0 15.0 15.0 15.0 15.0 15.0 15.0 15.0 15.0 15.0 15.0 15.0 15.0 15.0 15.0 15.0 15.0 15.0 15.0 11.9
15.0 15.0 15.0 15.0 15.0 15.0 15.0 15.0 15.0 15.0 15.0 15.0 15.0 15.0 15.0 15.0 12.5 15.0 15.0 1.3 15.0 15.0 15.0 15.0 15.0 15.0 15.0 15.0 11.2 15.0 15.0 15.0 15.0 15.0 15.0 15.0 15.0 15.0 15.0 15.0 15.0 15.0 15.0
15.0 15.0 15.0 15.0 15.0 15.0 15.0 15.0 15.0 15.0 15.0 15.0 15.0 15.0 15.0 15.0 14.5 0.2 15.0 14.8 15.0 15.0 15.0 15.0 15.0 15.0 15.0 15.0 15.0 15.0 15.0 13.9 15.0 15.0 15.0 15.0 15.0 15.0 15.0 15.0 15.0 15.0 15.0
14.8 13.5 15.0 15.0 15.0 15.0 15.0 2.7 15.0 15.0 15.0 15.0 15.0 15.0 15.0 15.0 15.0 15.0 15.0 2.6 0.1 2.0 15.0 15.0 15.0 15.0 12.7 15.0 15.0 15.0 15.0 15.0 15.0 15.0 15.0 15.0 15.0 15.0 15.0 15.0 15.0 15.0 15.0
15.0 4.8 9.9 15.0 9.3 12.6 15.0 14.5 7.8 15.0 9.9 15.0 15.0 15.0 15.0 15.0 15.0 15.0 15.0 15.0 15.0 15.0 10.1 14.2 7.4 15.0 15.0 15.0 15.0 15.0 15.0 15.0 15.0 15.0 15.0 15.0 15.0 15.0 14.5 15.0 15.0 10.1 10.4
0.3 15.0 5.8 15.0 13.2 15.0 15.0 1.2 0.0 0.1 3.6 5.6 2.5 15.0 15.0 15.0 15.0 15.0 0.1 0.0 0.0 0.0 0.1 15.0 15.0 15.0 15.0 15.0 15.0 15.0 15.0 0.3 15.0 15.0 15.0 15.0 15.0 12.0 15.0 15.0 15.0 15.0 15.0
0.2 12.2 3.4 0.2 15.0 15.0 15.0 15.0 14.6 0.1 0.0 0.0 0.0 0.1 15.0 2.2 0.0 0.1 0.5 0.0 0.0 0.0 14.1 15.0 15.0 15.0 15.0 15.0 15.0 15.0 9.6 15.0 15.0 15.0 15.0 9.6 14.5 15.0 0.1 15.0 15.0 15.0 15.0
14.8 1.4 0.1 13.6 15.0 15.0 15.0 15.0 15.0 15.0 15.0 3.8 0.0 0.0 0.0 0.0 0.0 0.0 0.0 0.0 0.0 0.0 15.0 15.0 15.0 15.0 15.0 12.3 0.7 3.2 2.8 0.2 1.6 12.6 2.1 1.8 3.7 5.5 14.4 15.0 15.0 15.0 15.0
3.2 0.2 0.1 0.1 15.0 8.2 15.0 15.0 15.0 15.0 15.0 7.7 0.0 0.0 0.0 0.0 0.0 0.0 0.0 15.0 11.0 10.6 11.2 15.0 15.0 3.4 8.7 14.2 12.4 15.0 3.8 0.4 10.5 15.0 15.0 7.2 2.7 2.6 10.6 5.6 15.0 15.0 15.0
12.1 12.9 0.3 0.1 2.6 15.0 6.4 14.7 15.0 15.0 15.0 0.1 0.1 0.1 0.0 0.0 0.0 0.1 0.1 15.0 15.0 15.0 15.0 15.0 15.0 15.0 15.0 14.2 12.0 13.4 2.3 7.3 15.0 15.0 15.0 14.9 8.0 11.8 8.1 14.5 15.0 15.0 15.0
0.4 0.1 0.8 0.1 3.0 15.0 15.0 3.6 12.5 15.0 15.0 0.2 0.1 0.0 0.0 0.1 0.1 0.1 0.8 0.3 14.6 15.0 15.0 14.6 8.8 11.3 14.5 14.6 2.3 14.6 14.6 15.0 7.7 15.0 15.0 15.0 15.0 15.0 12.8 8.8 7.0 15.0 15.0
0.2 0.1 0.3 0.2 0.3 0.2 0.5 6.7 0.2 0.1 0.1 0.0 0.0 0.1 0.0 0.2 0.2 0.1 0.1 0.0 0.1 0.1 0.2 0.2 0.1 0.2 0.8 5.9 12.9 15.0 15.0 15.0 15.0 15.0 15.0 15.0 15.0 5.9 13.9 15.0 15.0 15.0 15.0
0.1 15.0 1.5 0.2 0.2 0.1 0.1 6.1 9.3 1.9 0.2 0.5 0.2 0.1 1.8 0.5 0.3 0.2 0.2 2.4 15.0 10.2 3.3 3.8 6.9 9.9 3.7 15.0 15.0 15.0 15.0 15.0 15.0 15.0 15.0 15.0 12.7 7.7 11.4 15.0 15.0 15.0 15.0
14.9 15.0 12.2 0.5 0.2 0.1 0.1 0.1 0.1 0.1 0.2 0.2 0.2 1.2 4.2 3.5 6.1 7.6 15.0 15.0 11.7 14.9 7.0 6.1 8.4 10.6 15.0 15.0 15.0 15.0 15.0 15.0 15.0 15.0 5.9 15.0 15.0 15.0 15.0 15.0 15.0 15.0 15.0
4.4 4.5 9.2 2.6 0.8 0.3 0.2 0.2 0.2 0.1 0.1 0.1 0.1 0.2 2.0 15.0 15.0 15.0 11.3 15.0 15.0 15.0 15.0 15.0 15.0 15.0 15.0 15.0 15.0 15.0 15.0 15.0 15.0 9.3 15.0 15.0 15.0 15.0 15.0 15.0 15.0 15.0 15.0
9.0 9.1 3.5 15.0 3.3 2.8 1.7 0.6 0.2 0.2 0.1 0.3 0.5 4.2 4.6 8.0 14.4 15.0 15.0 15.0 15.0 15.0 15.0 15.0 15.0 15.0 15.0 15.0 15.0 14.5 15.0 15.0 15.0 15.0 15.0 15.0 15.0 15.0 15.0 15.0 15.0 15.0 15.0